Weather History for Cairo, IL

Change the Weather History Date:

Thursday, February 7, 2013

  Actual Average Record
Temperature  
Mean Temperature 50 °F -  
Max Temperature 64 °F 38 °F 64 °F (2013)
Min Temperature 35 °F 24 °F 9 °F (1989)
Degree Days  
Heating Degree Days 16    
Moisture  
Dew Point 43 °F    
Average Humidity 71    
Maximum Humidity 94    
Minimum Humidity 51    
Precipitation  
Precipitation 0.19 in - - ()
Sea Level Pressure  
Sea Level Pressure 29.96 in    
Wind  
Wind Speed 6 mph (South)    
Max Wind Speed 21 mph    
Max Gust Speed 25 mph    
Visibility 9 miles    
Events Rain    
Averages and records for this station are not official NWS values.
T = Trace of Precipitation, MM = Missing Value Source: NWS Daily Summary

Daily Weather History Graph

Daily Weather History Graph

Search for Another Location

Airport:

Trip Planner

Search our weather history database for the weather conditions in past years. The results will help you decide how hot, cold, wet, or windy it might be!

Date:

Astronomy

Feb. 07, 2013 Rise Set
Actual Time 6:53 AM CST 5:28 PM CST
Civil Twilight 6:26 AM CST 5:55 PM CST
Nautical Twilight 5:56 AM CST 6:26 PM CST
Astronomical Twilight 5:25 AM CST 6:56 PM CST
Moon 4:31 AM CST (2/7) 2:55 PM CST (2/7)
Length of Visible Light 11h 28m
Length of Day
10h 34m
Waning Crescent, 9% of the Moon is Illuminated
Feb 7
Waning Crescent
Feb 10
New
Feb 17
First Quarter
Feb 25
Full
Mar 4
Last Quarter

Hourly Weather History & Observations

Time (CST) Temp. Windchill Dew Point Humidity Pressure Visibility Wind Dir Wind Speed Gust Speed Precip Events Conditions
12:15 AM 42.8 °F 39.3 °F 32.0 °F 66% 30.09 in 10.0 mi ENE 5.8 mph - N/A   Clear
12:55 AM 42.8 °F 40.1 °F 32.0 °F 66% 30.09 in 10.0 mi ENE 4.6 mph - N/A   Clear
1:15 AM 42.8 °F 40.1 °F 32.0 °F 66% 30.09 in 10.0 mi NE 4.6 mph - N/A   Clear
1:35 AM 42.8 °F 40.1 °F 33.8 °F 70% 30.08 in 10.0 mi North 4.6 mph - N/A   Clear
1:55 AM 42.8 °F 39.3 °F 32.0 °F 66% 30.07 in 10.0 mi ENE 5.8 mph - N/A   Clear
2:15 AM 42.8 °F 41.1 °F 33.8 °F 70% 30.07 in 10.0 mi ESE 3.5 mph - N/A   Clear
2:35 AM 42.8 °F 41.1 °F 33.8 °F 70% 30.07 in 10.0 mi ENE 3.5 mph - N/A   Clear
2:55 AM 41.0 °F 35.8 °F 33.8 °F 76% 30.05 in 10.0 mi ENE 8.1 mph - N/A   Clear
3:15 AM 41.0 °F 36.4 °F 32.0 °F 70% 30.05 in 10.0 mi NNE 6.9 mph - N/A   Clear
3:35 AM 41.0 °F 38.0 °F 32.0 °F 70% 30.05 in 10.0 mi NNE 4.6 mph - N/A   Clear
3:55 AM 39.2 °F 34.2 °F 32.0 °F 75% 30.04 in 10.0 mi North 6.9 mph - N/A   Clear
4:15 AM 39.2 °F 34.2 °F 32.0 °F 75% 30.04 in 10.0 mi NE 6.9 mph - N/A   Clear
4:35 AM 39.2 °F 35.9 °F 32.0 °F 75% 30.02 in 10.0 mi ENE 4.6 mph - N/A   Clear
4:55 AM 39.2 °F 37.0 °F 30.2 °F 70% 30.03 in 10.0 mi ENE 3.5 mph - N/A   Clear
5:15 AM 39.2 °F 35.9 °F 32.0 °F 75% 30.03 in 10.0 mi East 4.6 mph - N/A   Clear
5:35 AM 39.2 °F 35.9 °F 30.2 °F 70% 30.02 in 10.0 mi East 4.6 mph - N/A   Scattered Clouds
5:55 AM 35.6 °F 31.7 °F 30.2 °F 81% 30.02 in 10.0 mi NNE 4.6 mph - N/A   Scattered Clouds
6:15 AM 37.4 °F 32.8 °F 30.2 °F 75% 30.02 in 10.0 mi NE 5.8 mph - N/A   Scattered Clouds
6:35 AM 37.4 °F 32.8 °F 30.2 °F 75% 30.01 in 10.0 mi NE 5.8 mph - N/A   Clear
6:55 AM 35.6 °F 32.8 °F 30.2 °F 81% 30.00 in 10.0 mi ENE 3.5 mph - N/A   Clear
7:15 AM 35.6 °F - 30.2 °F 81% 30.01 in 10.0 mi Calm Calm - N/A   Clear
7:35 AM 35.6 °F 32.8 °F 30.2 °F 81% 30.01 in 10.0 mi NE 3.5 mph - N/A   Clear
7:55 AM 41.0 °F - 33.8 °F 76% 30.01 in 10.0 mi Calm Calm - N/A   Clear
8:15 AM 44.6 °F 43.1 °F 35.6 °F 71% 30.02 in 10.0 mi ESE 3.5 mph - N/A   Clear
8:35 AM 48.2 °F - 35.6 °F 62% 30.01 in 10.0 mi ESE 4.6 mph - N/A   Clear
8:55 AM 51.8 °F - 35.6 °F 54% 30.01 in 10.0 mi SE 6.9 mph - N/A   Clear
9:15 AM 53.6 °F - 35.6 °F 51% 30.00 in 10.0 mi SSE 4.6 mph - N/A   Clear
9:35 AM 55.4 °F - 37.4 °F 51% 30.00 in 10.0 mi SSE 9.2 mph - N/A   Clear
10:15 AM 59.0 °F - 41.0 °F 51% 29.99 in 10.0 mi SSW 10.4 mph - N/A   Clear
10:35 AM 59.0 °F - 42.8 °F 55% 29.99 in 10.0 mi SSE 11.5 mph - N/A   Scattered Clouds
10:55 AM 60.8 °F - 42.8 °F 52% 29.98 in 10.0 mi South 9.2 mph - N/A   Overcast
11:15 AM 60.8 °F - 44.6 °F 55% 29.97 in 10.0 mi South 8.1 mph - N/A   Overcast
11:35 AM 60.8 °F - 44.6 °F 55% 29.96 in 10.0 mi South 9.2 mph - N/A   Overcast
11:55 AM 60.8 °F - 44.6 °F 55% 29.96 in 10.0 mi South 8.1 mph - N/A   Overcast
12:15 PM 62.6 °F - 46.4 °F 55% 29.95 in 10.0 mi SW 11.5 mph - N/A   Overcast
12:35 PM 60.8 °F - 48.2 °F 63% 29.94 in 10.0 mi SSW 9.2 mph - N/A   Overcast
12:55 PM 60.8 °F - 48.2 °F 63% 29.94 in 10.0 mi SSW 10.4 mph - N/A   Overcast
1:15 PM 62.6 °F - 48.2 °F 59% 29.93 in 7.0 mi SSW 9.2 mph - N/A   Overcast
1:35 PM 62.6 °F - 50.0 °F 63% 29.93 in 10.0 mi SSW 9.2 mph - N/A   Overcast
1:55 PM 64.4 °F - 50.0 °F 59% 29.91 in 10.0 mi SW 6.9 mph - N/A   Mostly Cloudy
2:15 PM 64.4 °F - 50.0 °F 59% 29.90 in 10.0 mi SSW 8.1 mph - N/A   Scattered Clouds
2:35 PM 62.6 °F - 50.0 °F 63% 29.89 in 10.0 mi SSW 8.1 mph - N/A   Scattered Clouds
2:55 PM 64.4 °F - 51.8 °F 64% 29.89 in 10.0 mi WSW 6.9 mph - N/A   Scattered Clouds
3:15 PM 64.4 °F - 50.0 °F 59% 29.88 in 10.0 mi SW 6.9 mph - N/A   Scattered Clouds
3:35 PM 64.4 °F - 51.8 °F 64% 29.87 in 10.0 mi SW 6.9 mph - N/A   Scattered Clouds
3:55 PM 64.4 °F - 51.8 °F 64% 29.87 in 10.0 mi SSW 8.1 mph - N/A   Scattered Clouds
4:15 PM 64.4 °F - 51.8 °F 64% 29.88 in 10.0 mi SW 5.8 mph - N/A   Scattered Clouds
4:35 PM 62.6 °F - 51.8 °F 68% 29.87 in 10.0 mi SSW 4.6 mph - N/A   Mostly Cloudy
4:55 PM 62.6 °F - 51.8 °F 68% 29.87 in 10.0 mi SW 4.6 mph - N/A   Overcast
5:15 PM 62.6 °F - 51.8 °F 68% 29.88 in 10.0 mi SSW 4.6 mph - N/A   Overcast
5:35 PM 60.8 °F - 51.8 °F 72% 29.88 in 10.0 mi SSW 6.9 mph - N/A   Overcast
5:55 PM 60.8 °F - 51.8 °F 72% 29.88 in 10.0 mi SSW 6.9 mph - N/A   Overcast
6:15 PM 60.8 °F - 51.8 °F 72% 29.88 in 10.0 mi SSW 6.9 mph - N/A   Overcast
6:35 PM 60.8 °F - 51.8 °F 72% 29.88 in 10.0 mi SSW 5.8 mph - N/A   Overcast
6:55 PM 60.8 °F - 51.8 °F 72% 29.88 in 10.0 mi SSW 5.8 mph - N/A   Overcast
7:15 PM 59.0 °F - 51.8 °F 77% 29.87 in 10.0 mi SSW 4.6 mph - N/A   Overcast
7:35 PM 59.0 °F - 51.8 °F 77% 29.88 in 7.0 mi West 4.6 mph - 0.01 in Rain Rain
7:55 PM 57.2 °F - 51.8 °F 82% 29.88 in 7.0 mi WSW 4.6 mph - 0.03 in Rain Rain
8:15 PM 57.2 °F - 51.8 °F 82% 29.88 in 4.0 mi Calm Calm - 0.05 in Rain Rain
8:35 PM 57.2 °F - 53.6 °F 88% 29.88 in 3.0 mi West 5.8 mph - 0.10 in Rain Heavy Rain
8:55 PM 57.2 °F - 53.6 °F 88% 29.89 in 3.0 mi West 6.9 mph - 0.14 in Rain Light Rain
9:15 PM 57.2 °F - 53.6 °F 88% 29.89 in 4.0 mi WNW 6.9 mph - N/A   Drizzle
9:35 PM 57.2 °F - 53.6 °F 88% 29.90 in 5.0 mi NW 6.9 mph - N/A   Overcast
9:55 PM 55.4 °F - 53.6 °F 94% 29.90 in 10.0 mi NNW 9.2 mph - N/A   Overcast
10:15 PM 55.4 °F - 51.8 °F 88% 29.90 in 7.0 mi NNW 20.7 mph 25.3 mph 0.01 in Rain Rain
10:35 PM 53.6 °F - 50.0 °F 88% 29.91 in 10.0 mi NNW 13.8 mph 21.9 mph 0.02 in Rain Light Rain
10:55 PM 53.6 °F - 50.0 °F 88% 29.92 in 10.0 mi NW 12.7 mph - 0.02 in   Light Drizzle
11:15 PM 51.8 °F - 48.2 °F 88% 29.93 in 10.0 mi NW 15.0 mph 19.6 mph N/A   Light Drizzle
11:35 PM 51.8 °F - 48.2 °F 88% 29.95 in 10.0 mi NNW 15.0 mph - N/A   Overcast
11:55 PM 51.8 °F - 48.2 °F 88% 29.96 in 10.0 mi NNW 16.1 mph 25.3 mph N/A   Overcast